Flag for Brazil Weather past 2 weeks in Manaus, Amazonas, Brazil

Now
79 °F

Sunny.


Feels Like: 82 °F
Forecast: 77 / 92 °F
Wind: 5 mph from East

Location: Manaus Aeroporto

Current Time: Jul 29, 2015 at 8:11:25 AM

Latest Report: Jul 29, 2015 at 7:00 AM


Visibility: 10 mi

Pressure: 29.92 "Hg

Humidity: 84%

Dew point: 73 °F

Location of ManausLocation

Historic Weather in Manaus — Graph

°F

Manaus temperature yesterday

Maximum temperature yesterday: 90 °F (at 2:00 PM)
Minimum temperature yesterday: 77 °F (at 6:00 AM)
Average temperature yesterday: 83 °F

Past Weeks' High & Low Weather Summary

 TemperatureHumidityPressure
High90 °F (Jul 14, 2:00 PM)94% (Jul 17, 4:00 AM)30.01 "Hg (Jul 17, 4:00 AM)
Low72 °F (Jul 23, 4:00 AM)55% (Jul 14, 2:00 PM)29.80 "Hg (Jul 27, 3:00 PM)
Average81 °F76%29.91 "Hg
* Reported Jul 14 7:00 AM — Jul 29 7:00 AM, Manaus, Weather by CustomWeather, © 2015

Note: Actual official high and low records may vary slightly from our data, if they occured in-between our weather recording intervals... More about our weather records

Advertising

Manaus weather history for previous 24 hours

 ConditionsComfort  
Time TempWeatherWind HumidityBarometerVisibility
7:00 AM
Wed, Jul 29
79 °FSunny.5 mph84%29.92 "Hg10 mi
6:00 AM75 °FClear.5 mph89%29.89 "Hg10 mi
5:00 AM77 °FClear.3 mph83%29.89 "Hg10 mi
4:00 AM77 °FClear.6 mph83%29.86 "Hg10 mi
3:00 AM79 °FClear.7 mph79%29.86 "Hg10 mi
2:00 AM79 °FClear.5 mph84%29.86 "Hg10 mi
1:00 AM81 °FClear.7 mph74%29.89 "Hg10 mi
12:00 AM82 °FClear.7 mph74%29.89 "Hg10 mi
11:00 PM
Tue, Jul 28
82 °FClear.7 mph74%29.89 "Hg10 mi
10:00 PM82 °FClear.3 mph74%29.89 "Hg10 mi
9:00 PM82 °FClear.5 mph70%29.89 "Hg10 mi
8:00 PM84 °FClear.5 mph66%29.86 "Hg10 mi
7:00 PM84 °FClear.5 mph66%29.83 "Hg10 mi
6:00 PM84 °FScattered clouds.2 mph66%29.83 "HgN/A
5:00 PM88 °FPassing clouds.6 mph59%29.80 "HgN/A
4:00 PM88 °FScattered clouds.7 mph59%29.80 "HgN/A
3:00 PM90 °FScattered clouds.7 mph59%29.83 "HgN/A
2:00 PM90 °FScattered clouds.6 mph59%29.86 "HgN/A
1:00 PM88 °FScattered clouds.8 mph62%29.89 "HgN/A
12:00 PM88 °FScattered clouds.8 mph66%29.92 "HgN/A
11:00 AM86 °FScattered clouds.7 mph70%29.92 "HgN/A
10:00 AM86 °FPassing clouds.5 mph70%29.92 "HgN/A
9:00 AM84 °FPassing clouds.3 mph74%29.92 "HgN/A
8:00 AM82 °FSunny.2 mph79%29.92 "Hg10 mi
Weather by CustomWeather, © 2015

See weather overviewHow to use our weather pages